Flag for Spain Weather past 2 weeks in Pamplona, Spain

Now
63 °F

Passing clouds.


Feels Like: 63 °F
Forecast: 53 / 62 °F
Wind: 16 mph from Northwest

Location: Pamplona / Noain

Current Time: Sep 3, 2015 at 7:33:18 PM

Latest Report: Sep 3, 2015 at 7:00 PM


Visibility: N/A

Pressure: 30.07 "Hg

Humidity: 68%

Dew point: 52 °F

Location of PamplonaLocation

Historic Weather in Pamplona — Graph

°F

Pamplona temperature yesterday

Maximum temperature yesterday: 72 °F (at 3:00 PM)
Minimum temperature yesterday: 54 °F (at 5:30 AM)
Average temperature yesterday: 63 °F

Past Weeks' High & Low Weather Summary

 TemperatureHumidityPressure
High95 °F (Aug 28, 6:00 PM)100% (Aug 31, 5:00 PM)30.24 "Hg (Aug 31, 5:00 PM)
Low50 °F (Aug 25, 6:00 AM)17% (Aug 30, 5:00 PM)29.71 "Hg (Aug 23, 7:00 PM)
Average74 °F53%30.03 "Hg
* Reported Aug 19 6:00 PM — Sep 3 6:30 PM, Pamplona, Weather by CustomWeather, © 2015

Note: Actual official high and low records may vary slightly from our data, if they occured in-between our weather recording intervals... More about our weather records

Advertising

Pamplona weather history for previous 24 hours

 ConditionsComfort  
Time TempWeatherWind HumidityBarometerVisibility
6:30 PM
Thu, Sep 3
66 °FPassing clouds.17 mph64%30.07 "HgN/A
6:00 PM66 °FPassing clouds.17 mph60%30.04 "HgN/A
5:30 PM68 °FPassing clouds.16 mph56%30.04 "HgN/A
5:00 PM66 °FPassing clouds.14 mph60%30.04 "HgN/A
4:30 PM66 °FPassing clouds.17 mph56%30.04 "HgN/A
4:00 PM68 °FScattered clouds.17 mph60%30.04 "HgN/A
3:30 PM68 °FPartly sunny.16 mph60%30.04 "HgN/A
3:00 PM66 °FPartly sunny.17 mph64%30.04 "HgN/A
2:30 PM66 °FPartly sunny.10 mph64%30.04 "HgN/A
2:00 PM68 °FPartly sunny.14 mph60%30.04 "HgN/A
1:30 PM66 °FScattered clouds.15 mph60%30.04 "HgN/A
1:00 PM66 °FScattered clouds.14 mph64%30.04 "HgN/A
12:30 PM66 °FScattered clouds.13 mph64%30.04 "HgN/A
12:00 PM64 °FScattered clouds.9 mph68%30.04 "HgN/A
11:30 AM63 °FPartly sunny.9 mph73%30.04 "HgN/A
11:00 AM63 °FPartly sunny.7 mph73%30.04 "HgN/A
10:30 AM61 °FScattered clouds.10 mph77%30.04 "HgN/A
9:30 AM59 °FScattered clouds.8 mph82%30.04 "HgN/A
9:00 AM57 °FScattered clouds.3 mph88%30.04 "HgN/A
8:30 AM57 °FPassing clouds.2 mph88%30.04 "HgN/A
8:00 AM57 °FPassing clouds.6 mph88%30.01 "HgN/A
7:30 AM57 °FPassing clouds.7 mph88%30.01 "HgN/A
7:00 AM57 °FPassing clouds.7 mph88%30.01 "HgN/A
6:30 AM57 °FPassing clouds.9 mph88%30.04 "HgN/A
6:00 AM57 °FPassing clouds.12 mph94%30.01 "HgN/A
5:30 AM59 °FLight rain. Passing clouds.9 mph88%30.01 "HgN/A
12:00 AM59 °FLight rain. Passing clouds.6 mph94%30.07 "Hg6 mi
11:30 PM
Wed, Sep 2
59 °FThunderstorms. Partly cloudy.1 mph94%30.04 "Hg3 mi
11:00 PM59 °FThunderstorms. Passing clouds.9 mph94%30.04 "Hg3 mi
10:30 PM63 °FThunderstorms. Passing clouds.9 mph77%30.07 "HgN/A
10:00 PM63 °FPassing clouds.6 mph77%30.04 "HgN/A
9:30 PM63 °FPartly sunny.8 mph77%30.04 "HgN/A
9:00 PM63 °FPartly sunny.9 mph77%30.01 "HgN/A
8:30 PM64 °FPartly sunny.8 mph73%30.01 "HgN/A
8:00 PM64 °FScattered clouds.10 mph73%30.01 "HgN/A
7:30 PM64 °FPassing clouds.12 mph73%30.01 "HgN/A
7:00 PM66 °FPassing clouds.12 mph68%30.01 "HgN/A
Weather by CustomWeather, © 2015

See weather overviewHow to use our weather pages